Home   Weather   Royan   Past weeks

Flag for France Past Weather in Royan, Poitou-Charentes, France — Yesterday and Last 2 Weeks

Now
57 °F

Passing clouds.


Feels Like: 57 °F
Forecast: 44 / 57 °F
Wind: 5 mph from South

Location: Cognac Airport

Current Time: Dec 9, 2016 at 4:23:39 pm

Latest Report: Dec 9, 2016 at 4:00 pm


Visibility: N/A

Pressure: 30.39 "Hg

Humidity: 63%

Dew Point: 45 °F

Location of RoyanLocation

Past Weather in Royan — Graph

°F

Royan Temperature Yesterday

Maximum temperature yesterday: 57 °F (at 2:00 pm)
Minimum temperature yesterday: 39 °F (at 1:30 am)
Average temperature yesterday: 46 °F

High & Low Weather Summary for the Past Weeks

 TemperatureHumidityPressure
High63 °F (Dec 5, 4:00 pm)100% (Nov 25, 12:00 am)30.51 "Hg (Nov 25, 12:00 am)
Low27 °F (Dec 2, 4:30 am)43% (Dec 2, 2:30 pm)29.80 "Hg (Nov 24, 3:00 pm)
Average45 °F82%30.16 "Hg
* Reported Nov 24 3:00 pm — Dec 9 3:00 pm, Royan, Weather by CustomWeather, © 2016

Note: Actual official high and low records may vary slightly from our data, if they occured in-between our weather recording intervals... More about our weather records

Advertising

Royan Weather History for the Previous 24 Hours

Scroll right to see more
 ConditionsComfort  
Time TempWeatherWind HumidityBarometerVisibility
3:00 pm
Fri, Dec 9
57 °FSunny.7 mph63%30.42 "Hg10 mi
2:30 pm57 °FPassing clouds.9 mph63%30.42 "HgN/A
2:00 pm57 °FSunny.8 mph67%30.42 "Hg10 mi
1:30 pm57 °FSunny.8 mph67%30.42 "Hg10 mi
1:00 pm55 °FSunny.10 mph67%30.45 "Hg10 mi
12:30 pm55 °FSunny.9 mph72%30.45 "Hg10 mi
12:00 pm54 °FPassing clouds.7 mph77%30.45 "HgN/A
11:30 am52 °FPassing clouds.8 mph77%30.45 "HgN/A
11:00 am50 °FPassing clouds.6 mph82%30.45 "HgN/A
10:30 am46 °FSunny.7 mph87%30.45 "Hg10 mi
10:00 am45 °FSunny.6 mph87%30.45 "Hg10 mi
9:30 am43 °FSunny.6 mph87%30.45 "Hg10 mi
9:00 am43 °FSunny.7 mph87%30.45 "Hg10 mi
8:30 am43 °FSunny.6 mph87%30.45 "Hg10 mi
8:00 am43 °FClear.6 mph87%30.45 "Hg10 mi
7:30 am43 °FPassing clouds.3 mph87%30.42 "HgN/A
7:00 am43 °FPassing clouds.3 mph93%30.42 "HgN/A
6:30 am43 °FClear.5 mph87%30.42 "Hg10 mi
5:30 am43 °FClear.6 mph87%30.42 "Hg10 mi
5:00 am43 °FClear.7 mph87%30.42 "Hg6 mi
4:30 am43 °FClear.8 mph93%30.42 "Hg6 mi
4:00 am43 °FClear.9 mph93%30.45 "Hg6 mi
3:30 am45 °FClear.9 mph87%30.45 "Hg6 mi
3:00 am45 °FClear.7 mph93%30.45 "Hg6 mi
2:30 am45 °FClear.7 mph87%30.45 "Hg6 mi
2:00 am45 °FClear.7 mph93%30.45 "Hg10 mi
1:30 am43 °FClear.6 mph93%30.45 "Hg5 mi
1:00 am43 °FClear.6 mph93%30.45 "Hg5 mi
12:30 am45 °FClear.5 mph87%30.48 "Hg6 mi
12:00 am45 °FClear.5 mph93%30.48 "Hg5 mi
11:30 pm
Thu, Dec 8
45 °FClear.5 mph93%30.48 "Hg10 mi
11:00 pm46 °FClear.5 mph87%30.48 "Hg10 mi
10:30 pm46 °FClear.3 mph87%30.48 "Hg10 mi
10:00 pm46 °FClear.5 mph87%30.48 "Hg10 mi
9:30 pm46 °FClear.3 mph87%30.48 "Hg10 mi
9:00 pm46 °FClear.3 mph87%30.48 "Hg10 mi
8:30 pm46 °FClear.3 mph87%30.45 "Hg10 mi
8:00 pm46 °FClear.2 mph87%30.45 "Hg10 mi
7:30 pm45 °FClear.5 mph93%30.45 "Hg10 mi
7:00 pm46 °FClear.6 mph82%30.45 "Hg10 mi
6:30 pm48 °FClear.3 mph82%30.45 "Hg10 mi
6:00 pm48 °FClear.5 mph82%30.45 "HgN/A
5:30 pm48 °FClear.7 mph82%30.45 "Hg10 mi
5:00 pm52 °FSunny.8 mph72%30.42 "Hg10 mi
4:30 pm54 °FSunny.7 mph72%30.42 "Hg10 mi
4:00 pm57 °FSunny.10 mph63%30.45 "Hg10 mi
Weather by CustomWeather, © 2016

See weather overviewHow to use our weather pages